Regional Weather Roundup
Issued by NWS Jackson, KY

Home | Current Version | Previous Version | Graphics & Text | Print | Product List | Glossary On
Versions: 1 2 3 4 5 6 7 8 9 10 11 12 13 14 15 16 17 18 19 20 21 22 23 24 25 26 27 28 29 30 31 32 33 34 35 36 37 38 39 40 41 42 43 44 45 46 47 48 49 50
000
ASUS43 KJKL 011010
RWRJKL

EAST KENTUCKY HOURLY WEATHER ROUNDUP
NATIONAL WEATHER SERVICE JACKSON KY
600 AM EDT SAT AUG 01 2015

NOTE: "FAIR" INDICATES FEW OR NO CLOUDS BELOW 12,000 FEET WITH
NO SIGNIFICANT WEATHER AND/OR OBSTRUCTIONS TO VISIBILITY.

* THESE REPORTS ARE NOT UNDER NWS QUALITY CONTROL AND MAY NOT
  REPORT WEATHER SUCH AS PRECIPITATION AND FOG.

KYZ079-080-083-085-087-088-110-112-115-119-120-011100
...EASTERN KENTUCKY...

CITY           SKY/WX    TMP DP  RH WIND       PRES   REMARKS
JACKSON        CLEAR     63  60  90 CALM      30.02S
LONDON         CLEAR     63  58  83 CALM      30.03F
SOMERSET*      MOCLDY    61  61 100 CALM      30.04S
MONTICELLO*    CLEAR     61  61 100 CALM      30.05F
WILLIAMSBURG*  CLEAR     59  59 100 CALM      30.04S
MIDDLESBORO*   PTCLDY    59  59 100 CALM      30.06S
HAZARD APT*    SUNNY     64  61  88 CALM      30.02F
BLACK MTN*       N/A     61  55  82 NE6         N/A
PIKEVILLE APT* CLEAR     66  61  82 SW3       30.02S
BIG SANDY*     SUNNY     66  62  85 SW3       30.01S
MOREHEAD APT*  SUNNY     63  61  94 S3        30.01S
$$

KYZ035-036-041-042-044-050-067-078-099-011100
...CENTRAL KENTUCKY...

CITY           SKY/WX    TMP DP  RH WIND       PRES   REMARKS
MT STERLING*   CLEAR     63  61  94 W5        30.02R
FLEMING/MASON* CLEAR     64  61  88 CALM      30.00S
DANVILLE*      CLEAR     64  61  88 CALM      30.02F
RICHMOND*      CLEAR     68  61  77 SW3       30.01S
LEXINGTON      CLEAR     66  61  84 CALM      30.00S
FRANKFORT      CLEAR     64  60  87 NW3       29.99S
$$

KYZ091>093-OHZ055-061-077-WVZ005-015-034-035-042-011100
...SOUTHERN OHIO/WEST VIRGINIA...

CITY           SKY/WX    TMP DP  RH WIND       PRES   REMARKS
COVINGTON      PTCLDY    64  61  90 CALM      29.98F
COLUMBUS       CLEAR     64  60  87 CALM      29.95R
DAYTON         PTCLDY    63  57  81 W6        29.98S
WILMINGTON     CLEAR     61  57  87 CALM      29.97S
HUNTINGTON     CLEAR     65  61  87 SW6       29.97S
CHARLESTON     PTCLDY    66  63  90 SW5       29.97R
PINEVILLE*     CLOUDY    59  59 100 MISG      30.08S FOG
BECKLEY        CLEAR     62  56  80 S3        30.05S
BLUEFIELD      CLEAR     63  55  75 W6        30.07F
$$

VAZ002-007-008-TNZ017-027-036-066-071-011100
...SOUTHWEST VIRGINIA/EAST TENNESSEE...

CITY           SKY/WX    TMP DP  RH WIND       PRES   REMARKS
WISE*          CLEAR     63  55  77 SW5       30.09S
ABINGDON*      CLEAR     60  57  92 CALM      30.06F
BRISTOL        CLEAR     58  57  97 CALM      30.05S
KNOXVILLE      CLEAR     63  61  93 NE3       30.01S
OAK RIDGE      CLEAR     64  61  90 CALM      30.03F
CROSSVILLE     CLEAR     61  57  87 CALM      30.07S
NASHVILLE      CLEAR     66  64  93 CALM      30.01S
$$

...KEY TO REMARKS...
VSB - VISIBILITY IN MILES
WCI - WIND CHILL INDEX
HX  - HEAT INDEX

$$



USA.gov is the U.S. government's official web portal to all federal, state and local government web resources and services.